Regional Weather Roundup
Issued by NWS

Home | Current Version | Previous Version | Graphics & Text | Print | Product List | Glossary On
Versions: 1 2 3 4 5 6 7 8 9 10 11 12 13 14 15 16 17 18 19 20 21 22 23 24 25 26 27 28 29 30 31 32 33 34 35 36 37 38 39 40 41 42 43 44 45 46 47 48 49 50
000
ASUS43 KMPX 191910
RWRMN
WEATHER ROUNDUP FOR MINNESOTA
NATIONAL WEATHER SERVICE TWIN CITIES/CHANHASSEN MN
200 PM CDT SAT AUG 19 2017


NOTE: "FAIR" INDICATES FEW OR NO CLOUDS BELOW 12,000 FEET WITH NO
SIGNIFICANT WEATHER AND/OR OBSTRUCTIONS TO VISIBILITY. N/A MEANS
CURRENT SKY AND/OR WEATHER CONDITIONS ARE NOT AVAILABLE.

MNZ060>063-068>070-192000-
   Twin Cities Metro

CITY           SKY/WX    TMP DP  RH WIND       PRES   REMARKS
TWIN CITIES    MOSUNNY   78  61  55 W3        29.94F
ST PAUL        SUNNY     77  61  57 SW8       29.93F
CRYSTAL        SUNNY     77  57  50 SW8       29.92F
BLAINE         MOSUNNY   79  57  47 S9        29.93F
LAKEVILLE      MOSUNNY   75  64  69 CALM      29.94F
EDEN PRAIRIE   SUNNY     77  62  59 SW6       29.93F
SOUTH ST PAUL  SUNNY     77  60  55 SW7       29.93F
LAKE ELMO      FAIR      77  61  57 SW8       29.95F
$$
MNZ001>005-007-008-013>017-022>024-027-028-192000-
   Northwest Minnesota

CITY           SKY/WX    TMP DP  RH WIND       PRES   REMARKS
BEMIDJI        SUNNY     81  54  39 SW7       29.86F
HALLOCK        SUNNY     82  57  42 S16       29.74F
ROSEAU         SUNNY     84  57  39 SW13G20   29.78F
WARROAD        SUNNY     82  63  51 S9        29.79F
THIEF RVR FALL SUNNY     83  56  39 S16       29.81F
CROOKSTON      SUNNY     82  57  42 SW17      29.80F
FOSSTON        SUNNY     81  57  44 S10       29.84F
DETROIT LAKES  SUNNY     79  59  50 S12       29.88F
MOORHEAD       SUNNY     79  63  57 S14       29.84F
PARK RAPIDS    MOSUNNY   80  57  45 VRB7      29.88F
MAHNOMEN       FAIR      78  60  53 SW12      29.85S
$$
MNZ006-009>011-018-025>026-192000-
   North Central Minnesota

CITY           SKY/WX    TMP DP  RH WIND       PRES   REMARKS
BAUDETTE       SUNNY     82  53  36 SW7       29.80F
FLAG ISLAND    SUNNY     79  64  61 S5        29.77F HAZE
INTL FALLS     MOSUNNY   80  56  43 W9G16     29.83F
WASKISH        PTSUNNY   81  59  47 SW10      29.84F
BIG FORK       SUNNY     79  54  41 SW9       29.87S
LONGVILLE      SUNNY     79  61  53 S8        29.89F
GRAND RAPIDS   SUNNY     77  58  51 SW6       29.90F
CRANE LAKE     PTSUNNY   77  57  50 SW5       29.86S
ORR            MOSUNNY   79  55  44 W3        29.84S
COOK           MOSUNNY   79  55  44 SW10      29.87F
WALKER         FAIR      77  55  45 S9        29.88S
$$
MNZ012-019>021-037-192000-
   Northeast Minnesota

CITY           SKY/WX    TMP DP  RH WIND       PRES   REMARKS
DULUTH         SUNNY     79  57  46 W10       29.89F
ELY            MOSUNNY   75  52  43 W7G16     29.87S
HIBBING        SUNNY     77  55  46 VRB5      29.88F
EVELETH        MOSUNNY   76  45  33 W8        29.90S
DULUTH HARBOR  SUNNY     81  61  50 SW10G17   29.87S
TWO HARBORS    SUNNY     82  63  51 W10G16    29.85F
SILVER BAY     SUNNY     82  55  39 W3        29.85
GRAND MARAIS     N/A     69  63  81 SW17      29.82S
G MARAIS ARPRT SUNNY     75  52  43 W7        29.88F
$$
MNZ029>031-032-039>041-046>048-054>057-064-192000-
   West Central Minnesota

CITY           SKY/WX    TMP DP  RH WIND       PRES   REMARKS
FERGUS FALLS   SUNNY     79  63  57 S10       29.86F
WHEATON        SUNNY     77  61  57 S13       29.88F
MORRIS         SUNNY     79  63  57 S13       29.89F
ALEXANDRIA     SUNNY     77  60  55 S13       29.92F
ELBOW LAKE     FAIR      76  63  64 S12       29.89F HAZE
WADENA         SUNNY     77  57  50 S7        29.89F
GLENWOOD       SUNNY     77  59  53 S12       29.92F
APPLETON       SUNNY     79  61  53 S7        29.89F
BENSON         SUNNY     79  61  53 S9        29.92S
ORTONVILLE     SUNNY     79  61  53 MISG      29.89F
MADISON        SUNNY     81  64  57 S10       29.90F
WILLMAR        FAIR      77  63  61 S6        29.93F
$$
MNZ033>034-036-042>043-049>051-058-059-192000-
   Central Minnesota

CITY           SKY/WX    TMP DP  RH WIND       PRES   REMARKS
ST CLOUD       SUNNY     78  59  51 SW10      29.92F
SAUK CENTRE    FAIR      76  60  57 S8        29.92F
PAYNESVILLE    SUNNY     76  62  60 S8        29.93F
AITKIN         SUNNY     77  63  61 SW5       29.89F
PINE RIVER     MOSUNNY   75  57  53 S5        29.92F
BRAINERD       SUNNY     77  58  51 SW10G18   29.90F
STAPLES        SUNNY     79  57  47 S6        29.90F
LONG PRAIRIE   FAIR      75  59  57 SE7       29.92F
LITTLE FALLS   MOSUNNY   77  57  50 S8        29.91F
LITCHFIELD     SUNNY     79  63  57 CALM      29.93F
BUFFALO        SUNNY     76  59  56 SW5       29.94F
MAPLE LAKE     SUNNY     78  65  65 S5        29.94F
HUTCHINSON     SUNNY     75  63  66 S3        29.94F
$$
MNZ037-044-045-052-053-192000-
   East Central Minnesota

CITY           SKY/WX    TMP DP  RH WIND       PRES   REMARKS
PRINCETON      SUNNY     81  61  50 W6        29.92F
MORA           MOSUNNY   75  59  57 W8        29.93F
CAMBRIDGE      SUNNY     81  61  50 SW7       29.92F
RUSH CITY      MOSUNNY   77  61  56 W6        29.93S HAZE
MOOSE LAKE     SUNNY     79  59  50 SW9       29.89S
HINCKLEY       FAIR      77  63  61 SW9       29.92S
CLOQUET        MOSUNNY   79  55  44 SW9G17    29.90F
MCGREGOR       MOSUNNY   79  61  53 W7        29.91S
$$
MNZ071>073-080-081-089-090-097-098-192000-
   Southwest Minnesota

CITY           SKY/WX    TMP DP  RH WIND       PRES   REMARKS
MONTEVIDEO     SUNNY     81  64  57 S9        29.91F
GRANITE FALLS  SUNNY     79  64  60 SE10      29.93F
CANBY          SUNNY     79  61  53 CALM      29.92S
MARSHALL       SUNNY     78  59  51 S12       29.92F
REDWOOD FALLS  SUNNY     77  62  59 S7        29.92F
OLIVIA         SUNNY     75  61  60 SE7       29.92F
PIPESTONE      SUNNY     75  63  64 S10       29.94F
WINDOM         SUNNY     77  61  57 S6        29.95S
WORTHINGTON    SUNNY     75  62  64 S6        29.96F
JACKSON        SUNNY     75  63  64 CALM      29.96F
TRACY          SUNNY     78  64  63 S7        29.94F
SLAYTON        SUNNY     75  59  56 SE7       29.96F
$$
MNZ065>067-074>077-082>085-091>093-192000-
   South Central Minnesota

CITY           SKY/WX    TMP DP  RH WIND       PRES   REMARKS
MANKATO        SUNNY     75  63  66 SE8       29.94F
NEW ULM        SUNNY     75  63  64 S6        29.93F
ST JAMES       SUNNY     75  63  64 CALM      29.95F
FAIRMONT       MOSUNNY   75  63  66 S8        29.95F
GLENCOE        SUNNY     75  66  72 SE3       29.93F
FARIBAULT      MOSUNNY   75  64  69 SW8       29.96S
OWATONNA       MOSUNNY   75  64  69 W5        29.96S
WASECA         MOSUNNY   73  63  68 SW5       29.97F
ALBERT LEA     MOSUNNY   79  64  61 SW7       29.96F
$$
MNZ078>079-086>088-094>096-192000-
   Southeast Minnesota

CITY           SKY/WX    TMP DP  RH WIND       PRES   REMARKS
ROCHESTER      PTSUNNY   73  63  70 SW8       29.98S
RED WING       SUNNY     81  57  44 W8        29.93F
STANTON        SUNNY     77  62  60 W3        29.93F
DODGE CENTER   MOSUNNY   75  61  60 SW6       29.97F
WINONA         SUNNY     77  57  50 SW6       29.95F
AUSTIN         MOSUNNY   75  63  64 SW6       29.96F
PRESTON        SUNNY     75  57  53 W9        29.99S
$$
ABBREVIATIONS USED IN REMARKS
   TC - TEMPERATURES IN CELSIUS
  WCI - WIND CHILL INDEX
   HX - HEAT INDEX
  VSB - VISIBILITY
$$




USA.gov is the U.S. government's official web portal to all federal, state and local government web resources and services.